sat.trackr.live / text

‹ back to catalog

JILIN-1 GAOFEN 3E

NORAD 46457 · 2020-065D

PAYLOAD ACTIVE UNKNOWN

§ Identity

Operator
Country
PRC
Launch date
2020-09-15
Launch site
SEAL
Launch vehicle
Mass (kg)
RCS (m²)

External: N2YO · Heavens-Above · Gunter

§ Orbital elements

Epoch: 2026-05-25T03:54:01.776384Z

Period
92.26 min
Inclination
97.2279°
Eccentricity
0.0010692
Mean motion
15.60734639 rev/d
Perigee alt
378.3 km
Apogee alt
392.8 km
Semi-major
6,763.7 km
B*
6.3911e-4
RAAN
197.2847°
Arg perigee
234.4785°
Mean anomaly
125.5476°
Rev number
31,616

§ Raw data

JILIN-1 GAOFEN 3E1 46457U 20065D   26145.16252056  .00053374  00000+0  63911-3 0  99982 46457  97.2279 197.2847 0010692 234.4785 125.5476 15.60734639316164

JSON: /api/v1/satellites/46457 · /tle

For live sub-satellite position, see the globe view (requires WebGL).

§ Visibility from observer

Set your observer location to see the next 7 days of passes ≥ 10°. The values pass through the URL so the page stays shareable.

No JS? Fill the form by hand. The geolocation button needs JavaScript.

§ Radio — SatNOGS DB

ModeDescriptionDownlinkUplink
BPSK Jillin Mysterious Pip 1.616 GHz

1 transmitter · refreshed weekly from db.satnogs.org